Tracking 20719 objects as of 26-May-2020
HD Live streaming from Space Station
objects crossing your sky now

FLOCK 2K 48

Track FLOCK 2K 48 now!
10-day predictions
FLOCK 2K 48 is classified as:


NORAD ID: 42855
Int'l Code: 2017-042AG
Perigee: 438.8 km
Apogee: 452.9 km
Inclination: 96.9 °
Period: 93.4 minutes
Semi major axis: 6816 km
RCS: Unknown
Launch date: July 14, 2017
Source: United States (US)
Launch site: TYURATAM MISSILE AND SPACE COMPLEX (TTMTR)
aabbcc
Your satellite tracking list
Your tracking list is empty




NASA's NSSDC Master Catalog

Two Line Element Set (TLE):
1 42855U 17042AG  20146.68865046 +.00005255 +00000-0 +12289-3 0  9996
2 42855 096.8942 016.0931 0010332 061.9715 298.2577 15.42497259160625
Source of the keplerian elements: AFSPC